EW0195 Weather Reports


Display with metric or nautical units.
time (UTC)temp
F
wind
direction
speed
MPH
gust
MPH
rain 1hr
in
rain 24hr
in
rain mn
in
humidity
%
barometer
mb
20260508202951 67 321 5.0 11.0 0.00 0.00 0.00 40 1010.6
20260508201450 65 323 6.0 11.0 0.00 0.00 0.00 42 1010.9
20260508195954 65 332 5.0 9.0 0.00 0.00 0.00 42 1011.0
20260508194450 67 351 5.0 11.0 0.00 0.00 0.00 40 1011.1
20260508192951 66 323 4.0 14.0 0.00 0.00 0.00 40 1011.2
20260508191450 64 311 6.0 16.0 0.00 0.00 0.00 44 1011.5
20260508185953 66 314 6.0 14.0 0.00 0.00 0.00 46 1011.6
20260508184451 64 304 5.0 11.0 0.00 0.00 0.00 45 1011.7
20260508182952 63 335 7.0 15.0 0.00 0.00 0.00 43 1011.8
20260508181450 64 13 7.0 15.0 0.00 0.00 0.00 43 1012.0
20260508174450 64 329 5.0 12.0 0.00 0.00 0.00 42 1012.2
20260508172952 63 337 7.0 20.0 0.00 0.00 0.00 43 1012.3
20260508164451 64 11 4.0 12.0 0.00 0.00 0.00 47 1012.4
20260508162951 62 4 5.0 9.0 0.00 0.00 0.00 46 1012.6
20260508161451 61 342 4.0 15.0 0.00 0.00 0.00 44 1012.9
20260508155955 60 14 6.0 14.0 0.00 0.00 0.00 45 1013.2
20260508154452 60 333 5.0 12.0 0.00 0.00 0.00 47 1013.6
20260508152952 60 335 6.0 11.0 0.00 0.00 0.00 47 1013.6
20260508151450 59 331 6.0 13.0 0.00 0.00 0.00 48 1013.7
20260508144452 57 336 5.0 13.0 0.00 0.00 0.00 46 1014.0
20260508142951 57 295 4.0 9.0 0.00 0.00 0.00 53 1014.0
20260508141450 55 340 4.0 8.0 0.00 0.00 0.00 54 1014.2
20260508135954 55 347 3.0 7.0 0.00 0.00 0.00 51 1014.1
20260508134450 56 309 3.0 11.0 0.00 0.00 0.00 49 1014.2
20260508132950 55 309 4.0 8.0 0.00 0.00 0.00 57 1014.4
20260508131451 54 318 2.0 7.0 0.00 0.00 0.00 59 1014.5
20260508125954 54 298 3.0 8.0 0.00 0.00 0.00 61 1014.5
20260508124450 53 314 2.0 6.0 0.00 0.00 0.00 65 1014.5
20260508122951 52 316 0.0 0.0 0.00 0.00 0.00 69 1014.5
20260508115954 50 340 0.0 5.0 0.00 0.00 0.00 76 1014.2
20260508114451 49 68 0.0 1.0 0.00 0.00 0.00 80 1014.3
20260508112950 47 11 0.0 1.0 0.00 0.00 0.00 82 1014.1
20260508111451 46 71 0.0 0.0 0.00 0.00 0.00 84 1013.9
20260508105954 44 71 0.0 0.0 0.00 0.00 0.00 86 1013.9
20260508104450 43 71 0.0 0.0 0.00 0.00 0.00 86 1013.6
20260508102951 42 71 0.0 0.0 0.00 0.00 0.00 85 1013.5
20260508101450 42 71 0.0 0.0 0.00 0.00 0.00 84 1013.5
20260508095953 42 71 0.0 0.0 0.00 0.00 0.00 82 1013.3
20260508094450 44 71 0.0 0.0 0.00 0.00 0.00 82 1013.0
20260508092950 44 71 0.0 1.0 0.00 0.00 0.00 82 1013.0
20260508085954 44 66 0.0 1.0 0.00 0.00 0.00 80 1013.1
20260508084451 45 68 0.0 1.0 0.00 0.00 0.00 78 1013.0
20260508082950 46 76 1.0 5.0 0.00 0.00 0.00 78 1012.7
20260508081451 47 64 2.0 6.0 0.00 0.00 0.00 77 1012.5
20260508074451 48 62 5.0 9.0 0.00 0.00 0.00 75 1012.1
20260508072950 48 70 4.0 10.0 0.00 0.00 0.00 74 1012.0
20260508071451 49 63 5.0 11.0 0.00 0.00 0.00 73 1011.9
20260508065955 50 61 6.0 10.0 0.00 0.00 0.00 71 1011.8
20260508064450 51 33 7.0 14.0 0.00 0.00 0.00 69 1011.6
20260508062951 51 49 5.0 11.0 0.00 0.00 0.00 68 1011.2
20260508061450 51 39 4.0 11.0 0.00 0.00 0.00 68 1011.0
20260508055953 51 47 1.0 5.0 0.00 0.00 0.00 74 1010.8
20260508054450 50 45 1.0 5.0 0.00 0.00 0.00 79 1010.5
20260508052951 50 321 1.0 3.0 0.00 0.00 0.00 80 1010.3
20260508051451 50 330 1.0 3.0 0.00 0.00 0.00 80 1010.2
20260508044451 51 316 2.0 4.0 0.00 0.00 0.00 78 1010.0
20260508042952 51 313 1.0 2.0 0.00 0.00 0.00 78 1009.8
20260508041455 51 306 1.0 3.0 0.00 0.00 0.00 77 1009.8
20260508035956 52 294 1.0 4.0 0.00 0.00 0.00 76 1009.7
20260508034452 52 299 1.0 3.0 0.00 0.00 0.00 76 1009.7
20260508032951 52 311 1.0 3.0 0.00 0.00 0.00 76 1009.7
20260508031451 52 300 1.0 3.0 0.00 0.00 0.00 75 1009.8
20260508024451 53 313 4.0 6.0 0.00 0.00 0.00 73 1009.7
20260508021452 53 313 3.0 6.0 0.00 0.00 0.00 70 1009.7
20260508015955 54 319 3.0 8.0 0.00 0.00 0.00 68 1009.6
20260508012951 52 132 0.0 1.0 0.00 0.00 0.00 65 1009.2
20260508011451 51 132 0.0 0.0 0.00 0.00 0.00 65 1008.9
20260508004453 52 132 0.0 1.0 0.00 0.00 0.00 62 1008.6
20260508002952 53 132 0.0 0.0 0.00 0.00 0.00 61 1008.5
20260508001451 54 132 0.0 0.0 0.00 0.00 0.00 59 1008.3
20260507235954 56 77 0.0 0.0 0.00 0.00 0.00 57 1008.3
20260507234451 58 77 0.0 1.0 0.00 0.00 0.00 53 1008.1
20260507232952 60 77 0.0 2.0 0.00 0.00 0.00 46 1008.0
20260507231451 60 77 2.0 4.0 0.00 0.00 0.00 45 1008.0
20260507225956 61 82 3.0 5.0 0.00 0.00 0.00 45 1008.1
20260507222951 61 72 4.0 10.0 0.00 0.00 0.00 47 1007.9
20260507221451 60 63 1.0 4.0 0.00 0.00 0.00 45 1007.9
20260507215955 60 34 2.0 6.0 0.00 0.00 0.00 45 1008.0
20260507214451 62 79 4.0 12.0 0.00 0.00 0.00 43 1008.1
20260507212951 63 125 2.0 8.0 0.00 0.00 0.00 44 1008.2